Stations météo

réclame
Mon MeteoGroup
Gijon, Espagne (8014): Température de l'air & dewpoint: 11.07.2018 13:00:00 - 17.07.2018 13:00:00 (CEST)Gijon, Espagne (8014): Vitesse du vent: 11.07.2018 13:00:00 - 17.07.2018 13:00:00 (CEST)Gijon, Espagne (8014): Direction du vent: 11.07.2018 13:00:00 - 17.07.2018 13:00:00 (CEST)Gijon, Espagne (8014): reduced air pressure: 11.07.2018 13:00:00 - 17.07.2018 13:00:00 (CEST)Gijon, Espagne (8014): visibility: 11.07.2018 13:00:00 - 17.07.2018 13:00:00 (CEST)
Date & Time tt [°C] td [°C] ff [km/h] ff [knt] dd ppp [hPa] vv [km]
17.07.2018 13:00:00 - - - - - - -
17.07.2018 12:00:00 - - - - - - -
17.07.2018 11:00:00 18,9 18,1 4 2 NE 1020,4 12
17.07.2018 10:00:00 - - - - - - -
17.07.2018 09:00:00 - - - - - - -
17.07.2018 08:00:00 18,6 17,9 4 2 W 1020,4 10
17.07.2018 07:00:00 - - - - - - -
17.07.2018 06:00:00 - - - - - - -
17.07.2018 05:00:00 - - - - - - -
17.07.2018 04:00:00 - - - - - - -
17.07.2018 03:00:00 - - - - - - -
17.07.2018 02:00:00 - - - - - - -
17.07.2018 01:00:00 - - - - - - -
17.07.2018 00:00:00 - - - - - - -
16.07.2018 23:00:00 - - - - - - -
16.07.2018 22:00:00 - - - - - - -
16.07.2018 21:00:00 - - - - - - -
16.07.2018 20:00:00 21,7 17,3 8 4 NNE 1021,1 20
16.07.2018 19:00:00 - - - - - - -
16.07.2018 18:00:00 - - - - - - -
16.07.2018 17:00:00 22,6 17,1 13 7 NE 1021,0 20
16.07.2018 16:00:00 - - - - - - -
16.07.2018 15:00:00 - - - - - - -
16.07.2018 14:00:00 22,1 14,7 18 10 NNE 1021,1 20
16.07.2018 13:00:00 - - - - - - -
16.07.2018 12:00:00 - - - - - - -
16.07.2018 11:00:00 20,5 15,5 5 3 SE 1021,1 15
16.07.2018 10:00:00 - - - - - - -
16.07.2018 09:00:00 - - - - - - -
16.07.2018 08:00:00 18,7 17,4 8 4 SSW 1019,7 15
16.07.2018 07:00:00 - - - - - - -
16.07.2018 06:00:00 - - - - - - -
16.07.2018 05:00:00 - - - - - - -
16.07.2018 04:00:00 - - - - - - -
16.07.2018 03:00:00 - - - - - - -
16.07.2018 02:00:00 - - - - - - -
16.07.2018 01:00:00 - - - - - - -
16.07.2018 00:00:00 - - - - - - -
15.07.2018 23:00:00 - - - - - - -
15.07.2018 22:00:00 - - - - - - -
15.07.2018 21:00:00 - - - - - - -
15.07.2018 20:00:00 21,0 19,1 4 2 S 1016,5 15
15.07.2018 19:00:00 - - - - - - -
15.07.2018 18:00:00 - - - - - - -
15.07.2018 17:00:00 23,0 18,5 4 2 WNW 1016,0 20
15.07.2018 16:00:00 - - - - - - -
15.07.2018 15:00:00 - - - - - - -
15.07.2018 14:00:00 23,0 18,3 8 4 WNW 1016,0 20
15.07.2018 13:00:00 - - - - - - -
15.07.2018 12:00:00 - - - - - - -
15.07.2018 11:00:00 21,8 19,4 5 3 WSW 1015,9 20
15.07.2018 10:00:00 - - - - - - -
15.07.2018 09:00:00 - - - - - - -
15.07.2018 08:00:00 21,2 18,9 5 3 WSW 1016,0 20
15.07.2018 07:00:00 - - - - - - -
15.07.2018 06:00:00 - - - - - - -
15.07.2018 05:00:00 - - - - - - -
15.07.2018 04:00:00 - - - - - - -
15.07.2018 03:00:00 - - - - - - -
15.07.2018 02:00:00 - - - - - - -
15.07.2018 01:00:00 - - - - - - -
15.07.2018 00:00:00 - - - - - - -
14.07.2018 23:00:00 - - - - - - -
14.07.2018 22:00:00 - - - - - - -
14.07.2018 21:00:00 - - - - - - -
14.07.2018 20:00:00 23,8 20,7 5 3 ENE 1015,9 30
14.07.2018 19:00:00 - - - - - - -
14.07.2018 18:00:00 - - - - - - -
14.07.2018 17:00:00 25,2 20,7 11 6 NE 1016,1 30
14.07.2018 16:00:00 - - - - - - -
14.07.2018 15:00:00 - - - - - - -
14.07.2018 14:00:00 25,0 19,4 11 6 NE 1016,6 20
14.07.2018 13:00:00 - - - - - - -
14.07.2018 12:00:00 - - - - - - -
14.07.2018 11:00:00 23,4 18,3 5 3 SW 1016,6 30
14.07.2018 10:00:00 - - - - - - -
14.07.2018 09:00:00 - - - - - - -
14.07.2018 08:00:00 20,2 18,3 9 5 SW 1016,5 30
14.07.2018 07:00:00 - - - - - - -
14.07.2018 06:00:00 - - - - - - -
14.07.2018 05:00:00 - - - - - - -
14.07.2018 04:00:00 - - - - - - -
14.07.2018 03:00:00 - - - - - - -
14.07.2018 02:00:00 - - - - - - -
14.07.2018 01:00:00 - - - - - - -
14.07.2018 00:00:00 - - - - - - -
13.07.2018 23:00:00 - - - - - - -
13.07.2018 22:00:00 - - - - - - -
13.07.2018 21:00:00 - - - - - - -
13.07.2018 20:00:00 22,8 18,8 5 3 ENE 1016,6 30
13.07.2018 19:00:00 - - - - - - -
13.07.2018 18:00:00 - - - - - - -
13.07.2018 17:00:00 24,0 19,7 9 5 E 1017,0 30
13.07.2018 16:00:00 - - - - - - -
13.07.2018 15:00:00 - - - - - - -
13.07.2018 14:00:00 24,2 18,2 8 4 E 1017,5 30
13.07.2018 13:00:00 - - - - - - -
13.07.2018 12:00:00 - - - - - - -
13.07.2018 11:00:00 23,2 17,0 9 5 E 1017,3 30
13.07.2018 10:00:00 - - - - - - -
13.07.2018 09:00:00 - - - - - - -
13.07.2018 08:00:00 20,6 16,2 4 2 SE 1017,1 30
13.07.2018 07:00:00 - - - - - - -
13.07.2018 06:00:00 - - - - - - -
13.07.2018 05:00:00 - - - - - - -
13.07.2018 04:00:00 - - - - - - -
13.07.2018 03:00:00 - - - - - - -
13.07.2018 02:00:00 - - - - - - -
13.07.2018 01:00:00 - - - - - - -
13.07.2018 00:00:00 - - - - - - -
12.07.2018 23:00:00 - - - - - - -
12.07.2018 22:00:00 - - - - - - -
12.07.2018 21:00:00 - - - - - - -
12.07.2018 20:00:00 23,6 20,1 9 5 E 1017,0 30
12.07.2018 19:00:00 - - - - - - -
12.07.2018 18:00:00 - - - - - - -
12.07.2018 17:00:00 23,4 18,7 9 5 E 1017,5 30
12.07.2018 16:00:00 - - - - - - -
12.07.2018 15:00:00 - - - - - - -
12.07.2018 14:00:00 23,2 16,7 11 6 NNE 1017,4 30
12.07.2018 13:00:00 - - - - - - -
12.07.2018 12:00:00 - - - - - - -
12.07.2018 11:00:00 22,2 16,7 8 4 ENE 1017,4 30
12.07.2018 10:00:00 - - - - - - -
12.07.2018 09:00:00 - - - - - - -
12.07.2018 08:00:00 19,0 16,0 5 3 SW 1017,1 30
12.07.2018 07:00:00 - - - - - - -
12.07.2018 06:00:00 - - - - - - -
12.07.2018 05:00:00 - - - - - - -
12.07.2018 04:00:00 - - - - - - -
12.07.2018 03:00:00 - - - - - - -
12.07.2018 02:00:00 - - - - - - -
12.07.2018 01:00:00 - - - - - - -
12.07.2018 00:00:00 - - - - - - -
11.07.2018 23:00:00 - - - - - - -
11.07.2018 22:00:00 - - - - - - -
11.07.2018 21:00:00 - - - - - - -
11.07.2018 20:00:00 22,0 18,6 9 5 NNE 1016,6 20
11.07.2018 19:00:00 - - - - - - -
11.07.2018 18:00:00 - - - - - - -
11.07.2018 17:00:00 23,2 19,8 16 9 NNE 1016,3 20
11.07.2018 16:00:00 - - - - - - -
11.07.2018 15:00:00 - - - - - - -
11.07.2018 14:00:00 23,8 18,0 9 5 NE 1016,9 20
11.07.2018 13:00:00 - - - - - - -

tt = Température de l'air
td = dewpoint
ff = Vitesse du vent
dd = Direction du vent
ppp = reduced air pressure
vv = visibility

stations d'obs. à proximité